Location: Barcelona
(41.3829°N, 2.1774°E)
Time: 12:06:51
(UTC+00:00)

ISS - Pass Details

Date: 04 May 2025
Orbit: 416 x 419 km, 51.6° (Epoch: 14 May)

Event Time Altitude Azimuth Distance (km) Brightness Sun altitude
Rises 04:10:13 0° 309° (NW) 2,361 -0.2 -6.7°
Reaches altitude 10° 04:12:25 10° 319° (NW) 1,496 -1.1 -6.3°
Maximum altitude 04:15:32 35° 27° (NNE) 695 -2.0 -5.8°
Drops below altitude 10° 04:18:39 10° 95° (E) 1,492 0.1 -5.3°
Sets 04:20:51 0° 105° (ESE) 2,353 0.9 -4.9°
